Flag for Canada Weather past 2 weeks in Dawson Creek, British Columbia, Canada

Now
39 °F

Passing clouds.


Feels Like: 37 °F
Forecast: 38 / 48 °F
Wind: 3 mph from Southeast

Location: Dawson Creek Airport

Current Time: Oct 22, 2014 at 12:26:43 AM

Latest Report: Oct 22, 2014 at 12:00 AM


Visibility: 9 mi

Pressure: 29.59 "Hg

Humidity: 87%

Dew point: 36 °F

Location of Dawson CreekLocation

Historic Weather in Dawson Creek — Graph

°F

Dawson Creek temperature yesterday

Maximum temperature yesterday: 57 °F (at 3:00 PM)
Minimum temperature yesterday: 36 °F (at 12:00 AM)
Average temperature yesterday: 46 °F

Past Weeks' High & Low Weather Summary

 TemperatureHumidityPressure
High72 °F (Oct 10, 12:00 PM)100% (Oct 13, 11:00 PM)30.16 "Hg (Oct 13, 11:00 PM)
Low28 °F (Oct 9, 12:00 AM)31% (Oct 10, 12:00 PM)29.47 "Hg (Oct 14, 12:00 AM)
Average45 °F74%29.76 "Hg
* Reported Oct 6 11:00 PM — Oct 21 11:00 PM, Dawson Creek, Weather by CustomWeather, © 2014

Note: Actual official high and low records may vary slightly from our data, if they occured in-between our weather recording intervals... More about our weather records

Advertising

Dawson Creek weather history for previous 24 hours

 ConditionsComfort  
Time TempWeatherWind HumidityBarometerVisibility
11:00 PM
Oct 21
41 °FPassing clouds.No wind81%29.61 "Hg9 mi
10:00 PM45 °FMostly cloudy.12 mph71%29.62 "Hg9 mi
9:00 PM46 °FMostly cloudy.3 mph66%29.62 "Hg9 mi
8:00 PM46 °FMostly cloudy.3 mph66%29.62 "Hg9 mi
7:00 PM43 °FPassing clouds.5 mph76%29.63 "Hg9 mi
6:00 PM48 °FPartly sunny.3 mph58%29.62 "Hg9 mi
5:00 PM55 °FPassing clouds.5 mph44%29.61 "Hg9 mi
4:00 PM57 °FSunny.5 mph48%29.60 "Hg9 mi
3:00 PM57 °FPassing clouds.9 mph51%29.60 "Hg9 mi
2:00 PM55 °FPartly sunny.7 mph55%29.61 "Hg9 mi
1:00 PM55 °FScattered clouds.9 mph55%29.62 "Hg9 mi
12:00 PM55 °FSunny.14 mph51%29.61 "Hg9 mi
11:00 AM54 °FSunny.8 mph63%29.62 "Hg9 mi
10:00 AM50 °FSunny.2 mph67%29.63 "Hg9 mi
9:00 AM46 °FSunny.9 mph76%29.62 "Hg9 mi
8:00 AM43 °FPassing clouds.2 mph81%29.61 "Hg9 mi
7:00 AM41 °FPassing clouds.5 mph81%29.60 "Hg9 mi
6:00 AM39 °FOvercast.5 mph87%29.59 "Hg9 mi
5:45 AM43 °FOvercast.5 mph81%29.58 "Hg9 mi
5:00 AM39 °FMostly cloudy.7 mph87%29.59 "Hg9 mi
4:00 AM36 °FMostly cloudy.2 mph93%29.59 "Hg9 mi
3:00 AM37 °FPassing clouds.2 mph93%29.59 "Hg9 mi
2:00 AM36 °FPassing clouds.6 mph100%29.60 "Hg9 mi
1:00 AM37 °FClear.5 mph93%29.58 "Hg9 mi
12:00 AM36 °FClear.2 mph100%29.58 "Hg9 mi
Weather by CustomWeather, © 2014

See weather overviewHow to use our weather pages